Weather in Limerick

Ireland     52°39′41″N   8°37′17″W
temp.,
°C
wind,
m/s
gust,
m/s
humid.,
%
clouds,
%
prec.,
mm/h
press.,
hPa
HPBL,
m
27 september, mon
mon2701:00+9ssw3790100 0.4 1003206
04:00+8ssw239377 0.9 100292
07:00+6ssw389736 1.4 1003221
10:00+11sw5118745 0.4 10051145
13:00+12wsw812826 1.8 10071394
16:00+13wsw711707 0.9 10081639
19:00+9sw512875 1.9 1010557
22:00+6s399437 0.6 1012227
28 september, tue
tue2801:00+7s3895100 0.8 1012231
04:00+7s3994100 0.3 1012303
07:00+8sse379660 0.4 1011269
10:00+10ssw378998 0.1 1011395
13:00+11sw2480100 0.5 1010618
16:00+10wnw3786100 1.4 1009557
19:00+9wnw5118799 2.2 1010561
22:00+6wnw412925 0.0 1014429
29 september, wed
wed2901:00+5w37925 0.0 1017160
04:00+6wsw278850 0.0 1020195
07:00+4wsw22925 0.1 102318
10:00+8sw24846 0.0 1024211
13:00+13w5856100 0.3 10241763
16:00+13wsw5959100 0.0 10231658
19:00+10s3881100 0.1 1022351
22:00+12s61375100 0.0 1020819
30 september, thu
thu3001:00+13ssw81687100 0.4 10161171
04:00+14sw61596100 1.1 10131301
07:00+14wsw71494100 2.4 1012943
10:00+13w7138920 0.4 10121139
13:00+14w71286100 0.8 10141200
16:00+14wsw61082100 0.4 10141080
19:00+12sw51088100 0.5 1013593
22:00+12ssw41187100 0.0 1011737
1 october, fri
fri101:00+11ssw41293100 0.1 1008550
04:00+13ssw91582100 0.0 1002891
07:00+12sw112090100 2.8 9981499
10:00+9w10178541 0.6 10011475
13:00+11wsw1118725 1.4 10022022
16:00+10wsw112084100 1.3 10001814
19:00+8w10188760 5.3 10021301
22:00+9w11208857 1.4 10041381